Regional Weather Roundup
Issued by NWS

Home | Current Version | Previous Version | Text Only | Print | Product List | Glossary On
Versions: 1 2 3 4 5 6 7 8 9 10 11 12 13 14 15 16 17 18 19 20 21 22 23 24 25 26 27 28 29 30 31 32 33 34 35 36 37 38 39 40 41 42 43 44 45 46 47 48 49 50
899
ASUS46 KSTO 250715
RWRCA

NORTHERN AND CENTRAL CA REGIONAL WEATHER ROUNDUP
NATIONAL WEATHER SERVICE SACRAMENTO CA
1200 AM PDT TUE APR 25 2017

NOTE: FAIR INDICATES FEW OR NO CLOUDS BELOW 12,000 FEET WITH NO
SIGNIFICANT WEATHER AND/OR OBSTRUCTIONS TO VISIBILITY.

CAZ001-003-250800-
NORTHWEST AREA

CITY           SKY/WX    TMP DP  RH WIND       PRES   REMARKS
CRESCENT CITY  CLOUDY    49  47  93 SE5       30.09F
UKIAH          CLOUDY    52  43  71 NW7       30.09F
$$

CAZ006-505>513-250800-
BAY AREA

CITY           SKY/WX    TMP DP  RH WIND       PRES   REMARKS
SANTA ROSA     PTCLDY    51  45  79 CALM      30.06F
SAN RAFAEL     N/A       54  MM  MM MISG
NAPA           CLEAR     53  48  83 W10       30.07R
CONCORD        CLEAR     55  47  74 VRB3      30.06S
OAKLAND CITY   N/A      MM  MM  MM MISG
OAKLAND        PTCLDY    56  49  77 NW10      30.08S
SAN FRAN CITY  N/A       53  MM  77 MISG
SAN FRAN ARPT  PTCLDY    54  48  80 W24       30.08F
LIVERMORE      PTCLDY    51  47  86 SW8       30.06S
HAYWARD        PTCLDY    56  46  69 NW8       30.07F
REDWOOD CITY   N/A       53  MM  80 MISG
MOFFETT ARPT   PTCLDY    54  47  77 W5        30.09S
SAN JOSE ARPT  PTCLDY    54  46  74 NW6       30.09R
$$
CAZ034-037-514>518-250800-
CENTRAL COAST

CITY           SKY/WX    TMP DP  RH WIND       PRES   REMARKS
WATSONVILLE    CLEAR     50  50 100 CALM      30.08S FOG
SALINAS        CLOUDY    56  50  80 SW8       30.09R
MONTEREY       CLOUDY    55  50  83 W7        30.10F
SAN LUIS OBISP CLEAR     54  51  90 NW15      30.02R
SANTA MARIA    CLEAR     51  51 100 NW10      30.02R
$$
CAZ015-016-250800-
NORTHERN SACRAMENTO VALLEY

CITY           SKY/WX    TMP DP  RH WIND       PRES   REMARKS
REDDING        PTCLDY    49  43  80 CALM      29.98S
RED BLUFF      PTCLDY    57  37  47 NW12      29.99R
OROVILLE       PTCLDY    55  51  86 S10       30.01R
$$
CAZ016>018-250800-
SOUTHERN SACRAMENTO VALLEY

CITY           SKY/WX    TMP DP  RH WIND       PRES   REMARKS
AUBURN         MOCLDY    52  48  87 SE16G22   30.03R
BEALE AFB      PTCLDY    53  49  87 SE7       30.00R
LINCOLN        FAIR      54  48  82 SE7       30.01R
MARYSVILLE     PTCLDY    54  50  86 SE7       30.02R
SAC INTL ARPT  MOCLDY    55  52  89 S6        30.00S
MATHER AIRPORT NOT AVBL
DOWNTOWN SAC   N/A       56  MM  MM MISG
SAC EXEC ARPT  PTCLDY    55  50  83 SW6       30.01S
VACAVILLE      PTCLDY    56  42  59 W7        30.02S
TRAVIS AFB     CLEAR     53  46  75 W9        30.01R
$$
CAZ019>021-250800-
SAN JOAQUIN VALLEY

CITY           SKY/WX    TMP DP  RH WIND       PRES   REMARKS
STOCKTON       CLEAR     53  49  86 W10       30.03S
MODESTO        CLEAR     56  47  71 NW8       30.02S
MERCED         CLEAR     55  47  74 NW8       30.02R
LEMOORE        MOCLDY    52  43  71 NW7       30.00R
FRESNO         CLOUDY    57  50  77 NW18G24   29.98S
HANFORD        PTCLDY    57  50  77 NW15      29.99R
PORTERVILLE      N/A     55  48  77 NW5       30.00R
BAKERSFIELD    PTCLDY    60  48  64 NW12      29.98S
$$
CAZ011-012-071-250800-
NORTHERN MOUNTAINS

CITY           SKY/WX    TMP DP  RH WIND       PRES   REMARKS
YREKA          CLOUDY    44  36  73 NW6       30.03R
MOUNT SHASTA   CLOUDY    43  31  62 VRB3      29.98R
ALTURAS        CLOUDY    39  34  82 NW15      29.98R WCI  31
$$
CAZ011-012-071-250800-
SIERRA NEVADA MTNS

CITY           SKY/WX    TMP DP  RH WIND       PRES   REMARKS
BLUE CANYON    FOG       37  37 100 S6        30.02F VSB 3/4 WCI  32
TRUCKEE        DRIZZLE   34  32  93 SW7       30.00R WCI  28
TAHOE VLY ARPT MOCLDY    36  30  79 S8G18     29.99R WCI  30
MAMMOTH LAKES  FAIR      42  18  38 W21G26    29.95R
$$




USA.gov is the U.S. government's official web portal to all federal, state and local government web resources and services.